Regional Weather Roundup
Issued by NWS

Home | Current Version | Previous Version | Text Only | Print | Product List | Glossary Off
Versions: 1 2 3 4 5 6 7 8 9 10 11 12 13 14 15 16 17 18 19 20 21 22 23 24 25 26 27 28 29 30 31 32 33 34 35 36 37 38 39 40 41 42 43 44 45 46 47 48 49 50

000
ASUS43 KFSD 250702
RWRSD

WEATHER ROUNDUP FOR SOUTH DAKOTA
NATIONAL WEATHER SERVICE SIOUX FALLS SD
200 AM CDT WED APR 25 2018

NOTE: "FAIR" INDICATES FEW OR NO CLOUDS BELOW 12,000 FEET WITH NO
SIGNIFICANT WEATHER AND/OR OBSTRUCTIONS TO VISIBILITY.


SDZ001>005-009-010-012>017-250800-
NORTHWEST AND NORTH CENTRAL SOUTH DAKOTA

CITY           SKY/WX    TMP DP  RH WIND       PRES   REMARKS
BUFFALO          N/A     36  28  73 W5        30.27F
FAITH            N/A     40  26  57 W5        30.34F
MOBRIDGE       CLEAR     35  29  78 SE3       30.32F
$$

SDZ012>016-024>037-041>051-057-063-072>074-250800-
SOUTHWEST AND SOUTH CENTRAL SOUTH DAKOTA

CITY           SKY/WX    TMP DP  RH WIND       PRES   REMARKS
RAPID CTY ARPT CLEAR     30  22  72 W5        30.38F WCI  25
PIERRE         CLEAR     34  29  82 W7        30.35F WCI  28
CUSTER         CLEAR     27  17  66 W6        30.36F WCI  20
PHILIP         CLEAR     30  27  88 W7        30.38S WCI  23
PINE RIDGE     PTCLDY    30  27  88 W3        30.40F
SPEARFISH      FAIR      30  25  80 CALM      30.37F
WINNER         FAIR      37  32  82 W7        30.37S
$$

SDZ004>011-016>023-039-040-250800-
NORTHEAST SOUTH DAKOTA

CITY           SKY/WX    TMP DP  RH WIND       PRES   REMARKS
ABERDEEN       CLEAR     28  26  92 CALM      30.34F
WATERTOWN      CLEAR     28  26  92 N3        30.31F
BROOKINGS      CLEAR     34  29  82 N7        30.31S WCI  28
SISSETON         N/A     34  28  79 W7        30.31S WCI  28
$$

SDZ017-020-022-023-036>040-048>070-250800-
SOUTHEAST SOUTH DAKOTA

CITY           SKY/WX    TMP DP  RH WIND       PRES   REMARKS
SIOUX FALLS    CLEAR     37  30  75 N12       30.29S
HURON          CLEAR     31  29  92 NW3       30.33F
CHAMBERLAIN    CLEAR     35  35 100 W5        30.36F
MITCHELL       CLEAR     35  32  88 W6        30.35R
YANKTON        CLOUDY    42  38  85 NW9       30.32S
$$

ABBREVIATIONS USED IN REMARKS
   TC - TEMPERATURE IN CELSIUS
  WCI - WIND CHILL INDEX
   HX - HEAT INDEX
  VSB - VISIBILITY





USA.gov is the U.S. government's official web portal to all federal, state and local government web resources and services.